Track RESURS P2 now! 10-day predictions RESURS P2 is classified as:
1 40360U 14087A 23270.46306875 .00018856 00000-0 38169-3 0 9994 2 40360 97.1762 352.7990 0007395 184.3511 175.7676 15.46446777488627